map of MCZ home
MCZ - Airport
Location
City:  Maceió, Alagoas, Brazil
Name:Zumbi dos Palmares International Airport
Old (Alt.):Campo dos Palmares Airport
ICAO:SBMO
IATA:MCZ

Details
Type:Airport (Aerodrome, Airfield)
Use:Public/Civil, International (customs port of entry)
Latitude:9°30'39"S (-9.510807)
Longitude:35°47'30"W (-35.791677)
Datum:WGS 1984
Elevation:387 ft (118 m)
Variation:22.62°W (WMM2015 magnetic declination)
0.02° annual change
Runways:1
Longest:8537 × 148 ft (2602 × 45 m), paved

Time
Time Zone:UTC-3
Local Time:

Weather
METAR:SBMO 031900Z 10013KT 9999 SCT020 29/21 Q1011
TAF:SBMO 031500Z 0318/0418 10011KT 9999 SCT020 TN22/0405Z TX31/0415Z
BECMG 0323/0401 05007KT
BECMG 0409/0411 10012KT
RMK PEI

Related Locations
Nearby:
Farthest:GUM: 12154 mi / 19560 km
Agana [Guam Intl (Antonio B. Won Pat Intl)], GU, US

Find:

   beyond  
but within

Other Information
Maps:
NOTAMs:
Links:
Sources:

  
flag of Brazil
flag of Alagoas
flag of Maceió
  

Sectional Chart

Flight Planning
at skyvector.com

Satellite Image

Google Maps Satellite view

 

Copyright © 2004-2016 Karl L. Swartz. All rights reserved.
The Great Circle Mapper name and logo are trademarks of the Great Circle Mapper.
All other trademarks mentioned herein belong to their respective owners.
Please see credits for attibutions and further copyright information.

  Follow gcmap on Facebook Follow gcmap on Twitter Follow gcmap on Google+ GCmap on LinkedIn

hCard Microformat

Geo Microformat